[[{"header":{"parameterUnit":"m.s-1","parameterCategory":1,"la1":30.2991,"la2":30.254,"lo1":-89.0895,"lo2":-89.0444,"dy":0.0017,"dx":0.0017,"nx":28,"ny":28,"refTime":"2024-12-22T03:00:00:Z","depth":0,"parameterNumber":2,"parameterNumberName":"U-component_of_WINDS"},"data":[0,0,0,0,0,0,0,0,0,0,0,0,0,0,0,0,0,0,0,0,0,0,0,0,0,0,0,0,0,0,0,0,0,0,0,0,0,0,0,0,0,0,0,0,0,0,0,0,0,0,0,0,0,0,0,0,0,0,-3.0938,-3.0938,0,-3.0912,-3.0911,-3.0911,-3.0787,-3.0784,-3.0781,-3.0778,-3.0755,-3.0757,-3.0759,0,0,0,0,0,0,0,0,0,0,0,0,0,-3.0885,-3.0886,-3.0938,-3.0938,-3.0937,-3.0912,-3.0911,-3.0911,-3.0788,-3.0784,-3.078,-3.0777,-3.0755,-3.0757,-3.076,0,0,0,0,0,0,0,0,0,0,0,0,0,-3.0888,-3.0887,-3.0938,-3.0872,-3.0866,-3.0912,-3.0911,-3.0911,-3.0788,-3.0784,-3.078,-3.0775,-3.0754,-3.0757,-3.076,-3.0867,0,0,-3.077,-3.0771,0,0,0,0,0,0,0,0,-3.0888,-3.089,-3.0882,-3.0877,-3.087,-3.0848,-3.0884,-3.0897,-3.0789,-3.0818,-3.0778,-3.0773,-3.079,-3.079,-3.0795,-3.0866,-3.0865,-3.077,-3.0772,-3.0773,-3.0774,0,0,0,0,0,0,0,-3.0888,-3.0891,-3.0928,-3.0882,-3.0875,-3.0846,-3.0841,-3.0886,-3.0829,-3.0815,-3.0806,-3.0805,-3.0786,-3.0792,-3.0793,-3.0865,-3.077,-3.0773,-3.0775,-3.0776,-3.1027,-3.1031,0,0,0,0,0,0,-3.0897,-3.0892,-3.0928,-3.0927,-3.0869,-3.085,-3.0845,-3.086,-3.0828,-3.0819,-3.0808,-3.0799,-3.0789,-3.079,-3.0792,-3.0918,-3.0773,-3.0776,-3.0778,-3.1022,-3.1028,-3.1033,0,0,0,0,0,0,-3.0896,-3.0901,-3.0929,-3.0907,-3.0908,-3.0856,-3.0873,-3.0862,-3.0867,-3.0823,-3.0813,-3.0825,-3.0785,-3.0787,-3.085,-3.0916,-3.0778,-3.078,-3.1016,-3.1024,-3.103,-3.1171,0,0,0,0,0,0,-3.0895,-3.0902,-3.0941,-3.0908,-3.091,-3.0987,-3.0877,-3.0864,-3.0873,-3.086,-3.0836,-3.0828,-3.0782,-3.0846,-3.0853,-3.0918,-3.0783,-3.101,-3.102,-3.1028,-3.116,-3.1182,-3.12,0,0,0,0,0,-3.0894,-3.0982,-3.0944,-3.0949,-3.0958,-3.0991,-3.0992,-3.0937,-3.0879,-3.0919,-3.089,-3.0828,-3.0907,-3.0853,-3.086,-3.0927,-3.1006,-3.1017,-3.1027,-3.1151,-3.1178,-3.12,0,0,0,0,0,0,-3.1024,-3.0976,-3.0934,-3.1013,-3.1007,-3.097,-3.1019,-3.0966,-3.0977,-3.0965,-3.0897,-3.0893,-3.0966,-3.0952,-3.0893,-3.1031,-3.0946,-3.0959,-3.1038,-3.1062,-3.1082,-3.1085,-3.0786,0,0,0,0,0,-3.1062,-3.1092,-3.1049,-3.1124,-3.1123,-3.1072,-3.1084,-3.1042,-3.1034,-3.1031,-3.1007,-3.1002,-3.1025,-3.1043,-3.1061,-3.1156,-3.1151,-3.1206,-3.1226,-3.1243,-3.1255,-3.1308,-3.1332,-3.1068,-3.1068,-3.1068,0,0,-3.1141,-3.1119,-3.1142,-3.115,-3.114,-3.1174,-3.107,-3.1111,-3.1136,-3.1037,-3.1095,-3.1078,-3.1068,-3.1148,-3.1182,-3.1139,-3.1327,-3.1256,-3.127,-3.1274,-3.1321,-3.1346,-3.1369,-3.1075,-3.1074,-3.1073,0,0,-3.1304,-3.1288,-3.135,-3.1343,-3.1329,-3.1295,-3.131,-3.1281,-3.1266,-3.1322,-3.1249,-3.1279,-3.132,-3.1317,-3.1321,-3.1484,-3.1429,-3.1492,-3.1599,-3.165,-3.1671,-3.1689,-3.1751,-3.1773,-3.1504,-3.1504,-3.1505,0,-3.1404,-3.1452,-3.1389,-3.1435,-3.1442,-3.1352,-3.1416,-3.1412,-3.1406,-3.1413,-3.1364,-3.1416,-3.1402,-3.1482,-3.1522,-3.1527,-3.1544,-3.1496,-3.1673,-3.169,-3.1707,-3.1764,-3.1787,-3.1512,-3.1512,-3.1511,-3.151,0,-3.1578,-3.1612,-3.1664,-3.1661,-3.1672,-3.1727,-3.1674,-3.1694,-3.1651,-3.1623,-3.1684,-3.1664,-3.168,-3.1694,-3.1653,-3.1769,-3.1743,-3.1685,-3.1599,-3.1741,-3.1794,-3.1816,-3.1524,-3.1521,-3.1519,-3.1517,0,0,-3.1823,-3.1784,-3.1805,-3.1803,-3.1782,-3.1808,-3.1859,-3.1873,-3.1893,-3.1892,-3.1935,-3.1973,-3.1919,-3.1923,-3.188,-3.1926,-3.206,-3.1861,-3.186,-3.1902,-3.2191,-3.2237,-3.2264,-3.2022,-3.2025,-3.2029,-3.2193,0,-3.1981,-3.2065,-3.2011,-3.2105,-3.2138,-3.2054,-3.2099,-3.2092,-3.2067,-3.2092,-3.2064,-3.2093,-3.2018,-3.2021,-3.2061,-3.2035,-3.2117,-3.2022,-3.2064,-3.2067,-3.2073,-3.2291,-3.234,-3.2496,-3.2213,-3.2216,-3.2218,0,-3.2176,-3.2184,-3.2282,-3.2256,-3.2268,-3.2309,-3.2319,-3.2343,-3.2334,-3.2312,-3.2319,-3.2265,-3.2315,-3.2229,-3.2299,-3.2236,-3.225,-3.2239,-3.2244,-3.2248,-3.2154,-3.2305,-3.2543,-3.2569,-3.225,-3.2247,-3.2245,0,-3.235,-3.2384,-3.2447,-3.2448,-3.2419,-3.245,-3.244,-3.2426,-3.2439,-3.2447,-3.2455,-3.247,-3.2479,-3.2492,-3.2445,-3.2386,-3.2523,-3.2432,-3.251,-3.2512,-3.2545,-3.2544,-3.2793,-3.2549,-3.2549,-3.2548,-3.2548,0,-3.2533,-3.2597,-3.2525,-3.2565,-3.2635,-3.2571,-3.2643,-3.2623,-3.2612,-3.2648,-3.2575,-3.2611,-3.2545,-3.2574,-3.2537,-3.2603,-3.2607,-3.2593,-3.2584,-3.2602,-3.2604,-3.2612,-3.2602,-3.2554,-3.2553,-3.2552,-3.2551,0,-3.274,-3.2694,-3.2758,-3.2725,-3.2718,-3.2772,-3.2744,-3.278,-3.275,-3.2796,-3.2804,-3.2757,-3.2788,-3.2741,-3.2767,-3.2742,-3.2835,-3.2806,-3.2838,-3.2831,-3.2913,-3.2907,-3.3178,-3.3212,-3.2944,-3.2946,-3.2948,0,-3.2862,-3.2909,-3.2881,-3.29,-3.2893,-3.2923,-3.2936,-3.2876,-3.2892,-3.2887,-3.2925,-3.2949,-3.2966,-3.302,-3.2989,-3.3009,-3.2983,-3.3077,-3.2986,-3.3004,-3.2989,-3.2988,-3.2994,-3.3097,-3.31,-3.3103,-3.3105,0,-3.3084,-3.3059,-3.3079,-3.3093,-3.311,-3.3117,-3.312,-3.3139,-3.3076,-3.3098,-3.3129,-3.3142,-3.3168,-3.3195,-3.3208,-3.3198,-3.3143,-3.3133,-3.3153,-3.3174,-3.3192,-3.3187,-3.2892,-3.3128,-3.3126,-3.3124,-3.3123,-3.3122,-3.3254,-3.3293,-3.328,-3.3306,-3.3301,-3.3306,-3.3339,-3.3313,-3.3337,-3.3353,-3.3316,-3.3357,-3.3349,-3.3359,-3.3357,-3.3389,-3.3348,-3.3376,-3.3383,-3.3392,-3.3406,-3.3184,-3.339,-3.3389,-3.3389,-3.3388,-3.3388,0,-3.3476,-3.3463,-3.3487,-3.3493,-3.3514,-3.3457,-3.3458,-3.348,-3.3516,-3.3512,-3.353,-3.3567,-3.3592,-3.3564,-3.3585,-3.3617,-3.3592,-3.3625,-3.3623,-3.3623,-3.344,-3.3422,-3.3644,-3.3644,-3.3644,-3.3644,-3.3644,-3.3644,-3.3593,-3.3658,-3.3632,-3.3694,-3.3681,-3.3719,-3.3725,-3.3729,-3.3726,-3.377,-3.3791,-3.3772,-3.3759,-3.3779,-3.3801,-3.3792,-3.3805,-3.3847,-3.383,-3.366,-3.3635,-3.3611,-3.3595,-3.385,-3.385,-3.4011,-3.4012,-3.4013]},{"header":{"parameterUnit":"m.s-1","parameterCategory":1,"la1":30.2991,"la2":30.254,"lo1":-89.0895,"lo2":-89.0444,"dy":0.0017,"dx":0.0017,"nx":28,"ny":28,"refTime":"2024-12-22T03:00:00:Z","depth":0,"parameterNumber":3,"parameterNumberName":"V-component_of_WINDS"},"data":[0,0,0,0,0,0,0,0,0,0,0,0,0,0,0,0,0,0,0,0,0,0,0,0,0,0,0,0,0,0,0,0,0,0,0,0,0,0,0,0,0,0,0,0,0,0,0,0,0,0,0,0,0,0,0,0,0,0,-1.1637,-1.1637,0,-1.1681,-1.1681,-1.1682,-1.1633,-1.1631,-1.163,-1.1628,-1.1675,-1.1678,-1.1681,0,0,0,0,0,0,0,0,0,0,0,0,0,-1.1514,-1.1516,-1.1637,-1.1637,-1.1638,-1.168,-1.1681,-1.1682,-1.1634,-1.1631,-1.1629,-1.1627,-1.1674,-1.1678,-1.1681,0,0,0,0,0,0,0,0,0,0,0,0,0,-1.1563,-1.1517,-1.1637,-1.1619,-1.1618,-1.168,-1.1681,-1.1682,-1.1634,-1.1631,-1.1628,-1.1626,-1.1673,-1.1677,-1.1682,-1.1764,0,0,-1.1695,-1.1697,0,0,0,0,0,0,0,0,-1.1561,-1.1568,-1.1621,-1.162,-1.1619,-1.1649,-1.1655,-1.171,-1.1635,-1.1628,-1.1628,-1.1625,-1.1669,-1.1673,-1.1688,-1.1767,-1.1769,-1.1696,-1.1698,-1.17,-1.1701,0,0,0,0,0,0,0,-1.1557,-1.1566,-1.1654,-1.1622,-1.1621,-1.1609,-1.1613,-1.1665,-1.1663,-1.1628,-1.1625,-1.1631,-1.1668,-1.1683,-1.1688,-1.1769,-1.1695,-1.1699,-1.1702,-1.1704,-1.1919,-1.1922,0,0,0,0,0,0,-1.1556,-1.1563,-1.1653,-1.1655,-1.1582,-1.1614,-1.1618,-1.1642,-1.1663,-1.1663,-1.1633,-1.1628,-1.1677,-1.1683,-1.169,-1.1789,-1.17,-1.1704,-1.1707,-1.1916,-1.192,-1.1923,0,0,0,0,0,0,-1.1553,-1.1564,-1.1651,-1.1608,-1.1619,-1.1619,-1.1646,-1.1644,-1.166,-1.1666,-1.1666,-1.1649,-1.1675,-1.1684,-1.1746,-1.1789,-1.1706,-1.171,-1.1912,-1.1917,-1.1921,-1.1987,0,0,0,0,0,0,-1.155,-1.1563,-1.1594,-1.161,-1.1621,-1.1706,-1.1648,-1.1647,-1.1668,-1.1662,-1.1681,-1.1682,-1.1674,-1.174,-1.1751,-1.1794,-1.1714,-1.1908,-1.1914,-1.192,-1.1981,-1.1993,-1.2003,0,0,0,0,0,-1.1546,-1.1612,-1.1596,-1.1607,-1.166,-1.1709,-1.1716,-1.1704,-1.1671,-1.1703,-1.1707,-1.1681,-1.1783,-1.1747,-1.1758,-1.1804,-1.1906,-1.1913,-1.1919,-1.1975,-1.199,-1.2003,0,0,0,0,0,0,-1.1603,-1.1613,-1.1596,-1.1669,-1.1688,-1.1701,-1.174,-1.172,-1.175,-1.1743,-1.1728,-1.1733,-1.18,-1.1808,-1.1767,-1.1885,-1.1839,-1.1849,-1.1878,-1.1892,-1.1903,-1.19,-1.1718,0,0,0,0,0,-1.1623,-1.1662,-1.1669,-1.1733,-1.1743,-1.174,-1.1761,-1.175,-1.177,-1.1778,-1.1786,-1.1807,-1.1843,-1.1868,-1.1902,-1.1981,-1.1985,-1.2018,-1.203,-1.2039,-1.2048,-1.2091,-1.2106,-1.1945,-1.1945,-1.1945,0,0,-1.1667,-1.1678,-1.1703,-1.1744,-1.1758,-1.1798,-1.1747,-1.1792,-1.1822,-1.1785,-1.1845,-1.1851,-1.1874,-1.1945,-1.1977,-1.1954,-1.2093,-1.2048,-1.2055,-1.2059,-1.2099,-1.2115,-1.2128,-1.195,-1.1949,-1.1948,0,0,-1.1768,-1.1779,-1.1834,-1.1848,-1.1869,-1.1867,-1.188,-1.1895,-1.1898,-1.1957,-1.193,-1.1966,-1.2029,-1.2046,-1.2063,-1.217,-1.2148,-1.2181,-1.2241,-1.2283,-1.2296,-1.2307,-1.2346,-1.236,-1.219,-1.219,-1.219,0,-1.182,-1.1879,-1.1864,-1.1911,-1.1931,-1.1897,-1.1953,-1.1968,-1.1999,-1.2014,-1.1987,-1.2066,-1.2078,-1.2153,-1.2179,-1.2194,-1.2209,-1.2179,-1.2295,-1.2306,-1.2316,-1.2353,-1.2368,-1.2194,-1.2193,-1.2193,-1.2192,0,-1.1943,-1.1984,-1.2026,-1.2056,-1.208,-1.2131,-1.2124,-1.215,-1.2137,-1.2138,-1.2199,-1.2213,-1.2249,-1.2266,-1.2254,-1.234,-1.2325,-1.2297,-1.225,-1.2336,-1.237,-1.2384,-1.2199,-1.2198,-1.2197,-1.2196,0,0,-1.2082,-1.2102,-1.2118,-1.2131,-1.2152,-1.2184,-1.2234,-1.2268,-1.2291,-1.2314,-1.2356,-1.241,-1.2384,-1.2403,-1.2393,-1.243,-1.2514,-1.2397,-1.2398,-1.2419,-1.2611,-1.2632,-1.2649,-1.2499,-1.2502,-1.2504,-1.2609,0,-1.2183,-1.2268,-1.2256,-1.2339,-1.2377,-1.2346,-1.239,-1.2407,-1.2409,-1.2443,-1.2445,-1.2483,-1.2446,-1.2457,-1.2492,-1.2497,-1.2553,-1.2489,-1.2539,-1.2541,-1.2536,-1.2667,-1.269,-1.2788,-1.2622,-1.2625,-1.2626,0,-1.2313,-1.234,-1.2426,-1.2441,-1.2456,-1.2496,-1.2526,-1.2558,-1.2578,-1.2577,-1.2598,-1.2581,-1.2632,-1.2583,-1.2653,-1.261,-1.263,-1.2635,-1.2638,-1.2644,-1.259,-1.2676,-1.2819,-1.2834,-1.2647,-1.2645,-1.2644,0,-1.2407,-1.2464,-1.2523,-1.2536,-1.2554,-1.2582,-1.2591,-1.2608,-1.263,-1.2657,-1.2671,-1.2704,-1.2722,-1.2748,-1.2741,-1.2706,-1.2813,-1.2764,-1.2814,-1.2815,-1.2839,-1.2838,-1.2988,-1.285,-1.285,-1.285,-1.2849,0,-1.2522,-1.2576,-1.2565,-1.2602,-1.2662,-1.2647,-1.2707,-1.2713,-1.2728,-1.2765,-1.274,-1.2776,-1.2764,-1.2799,-1.2794,-1.2853,-1.2861,-1.2863,-1.2861,-1.2865,-1.2865,-1.2879,-1.2872,-1.2854,-1.2853,-1.2852,-1.2851,0,-1.2637,-1.2632,-1.2694,-1.2706,-1.271,-1.2754,-1.2765,-1.2799,-1.2799,-1.2847,-1.2857,-1.2857,-1.2897,-1.2892,-1.2937,-1.2934,-1.3008,-1.2997,-1.3001,-1.2999,-1.305,-1.3046,-1.3215,-1.3237,-1.3084,-1.3086,-1.3087,0,-1.2711,-1.2752,-1.2768,-1.2791,-1.2802,-1.284,-1.2861,-1.2849,-1.2872,-1.2898,-1.293,-1.2968,-1.2997,-1.3064,-1.3068,-1.3103,-1.3093,-1.315,-1.3099,-1.3102,-1.3095,-1.3094,-1.3098,-1.3161,-1.3163,-1.3164,-1.3165,0,-1.2844,-1.284,-1.2871,-1.2903,-1.2929,-1.2954,-1.2975,-1.2996,-1.2985,-1.3013,-1.3054,-1.3077,-1.3123,-1.3161,-1.3194,-1.3204,-1.3184,-1.3181,-1.3195,-1.3201,-1.3202,-1.3203,-1.303,-1.3178,-1.3176,-1.3175,-1.3175,-1.3174,-1.2942,-1.2977,-1.2994,-1.303,-1.3045,-1.3066,-1.3099,-1.3102,-1.3136,-1.3172,-1.3162,-1.3209,-1.3227,-1.3269,-1.3282,-1.3319,-1.3298,-1.3318,-1.3323,-1.3328,-1.3335,-1.3195,-1.3325,-1.3324,-1.3324,-1.3324,-1.3323,0,-1.3074,-1.3083,-1.3117,-1.3148,-1.3177,-1.3153,-1.3176,-1.3202,-1.3243,-1.3262,-1.3292,-1.3339,-1.3376,-1.3383,-1.3418,-1.3446,-1.3438,-1.3456,-1.3455,-1.3457,-1.3351,-1.3336,-1.3462,-1.3462,-1.3462,-1.3462,-1.3462,-1.3462,-1.3146,-1.3204,-1.3202,-1.3267,-1.3276,-1.3321,-1.3336,-1.3355,-1.337,-1.3424,-1.3454,-1.3458,-1.3473,-1.3509,-1.3542,-1.3543,-1.3558,-1.358,-1.3578,-1.3479,-1.3465,-1.3452,-1.3438,-1.3584,-1.3584,-1.3682,-1.3683,-1.3683]}]]